Radioactive Concentration measured by Seawater Radiation Monitor near Fukushima Daiichi Nuclear Power Station
Date,Time,Cs137(Bq/L),Cs134(Bq/L),Total β(Bq/L)
2016/11/15,00:00,0.90,0.12,ND
2016/11/15,00:10,0.92,0.11,ND
2016/11/15,00:20,0.91,0.11,ND
2016/11/15,00:30,0.96,0.11,ND
2016/11/15,00:40,0.97,0.11,ND
2016/11/15,00:50,0.95,0.11,ND
2016/11/15,01:00,0.95,0.11,ND
2016/11/15,01:10,0.93,0.12,ND
2016/11/15,01:20,0.90,0.12,ND
2016/11/15,01:30,0.89,0.11,ND
2016/11/15,01:40,0.88,0.11,ND
2016/11/15,01:50,0.87,0.11,ND
2016/11/15,02:00,0.88,0.12,ND
2016/11/15,02:10,0.88,0.11,ND
2016/11/15,02:20,0.90,0.11,ND
2016/11/15,02:30,0.89,0.12,ND
2016/11/15,02:40,0.90,0.12,ND
2016/11/15,02:50,0.91,0.12,ND
2016/11/15,03:00,0.89,0.12,ND
2016/11/15,03:10,0.90,0.12,ND
2016/11/15,03:20,0.88,0.12,ND
2016/11/15,03:30,0.89,0.11,ND
2016/11/15,03:40,0.89,0.11,ND
2016/11/15,03:50,0.92,0.10,ND
2016/11/15,04:00,0.93,0.099,ND
2016/11/15,04:10,0.95,0.090,ND
2016/11/15,04:20,0.94,0.10,ND
2016/11/15,04:30,0.93,0.11,ND
2016/11/15,04:40,0.91,0.11,ND
2016/11/15,04:50,0.90,0.10,ND
2016/11/15,05:00,0.90,0.092,8.8
2016/11/15,05:10,0.86,0.10,9.2
2016/11/15,05:20,0.86,0.10,ND
2016/11/15,05:30,0.85,0.091,ND
2016/11/15,05:40,0.87,0.097,ND
2016/11/15,05:50,0.88,0.10,ND
2016/11/15,06:00,0.89,0.11,ND
2016/11/15,06:10,0.92,0.11,ND
2016/11/15,06:20,0.97,0.10,ND
2016/11/15,06:30,1.0,0.096,ND
2016/11/15,06:40,1.0,0.099,9.0
2016/11/15,06:50,1.0,0.098,ND
2016/11/15,07:00,1.1,0.10,11
2016/11/15,07:10,1.1,0.097,12
2016/11/15,07:20,1.0,0.10,9.3
2016/11/15,07:30,1.0,0.11,ND
2016/11/15,07:40,1.0,0.12,ND
2016/11/15,07:50,1.0,0.11,9.3
2016/11/15,08:00,1.0,0.12,ND
2016/11/15,08:10,1.0,0.13,ND
2016/11/15,08:20,1.0,0.12,9.2
2016/11/15,08:30,1.0,0.13,ND
2016/11/15,08:40,1.0,0.12,ND
2016/11/15,08:50,1.0,0.12,ND
2016/11/15,09:00,1.0,0.11,ND
2016/11/15,09:10,0.99,0.10,ND
2016/11/15,09:20,0.99,0.11,ND
2016/11/15,09:30,1.0,0.10,ND
2016/11/15,09:40,1.0,0.11,ND
2016/11/15,09:50,0.99,0.11,ND
2016/11/15,10:00,1.0,0.11,ND
2016/11/15,10:10,1.0,0.12,ND
2016/11/15,10:20,1.0,0.11,ND
2016/11/15,10:30,1.0,0.11,ND
2016/11/15,10:40,1.0,0.11,ND
2016/11/15,10:50,1.0,0.11,ND
2016/11/15,11:00,1.0,0.12,ND
2016/11/15,11:10,0.99,0.12,ND
2016/11/15,11:20,1.0,0.12,ND
2016/11/15,11:30,1.0,0.12,ND
2016/11/15,11:40,1.0,0.12,ND
2016/11/15,11:50,0.97,0.12,ND
2016/11/15,12:00,0.96,0.12,9.7
2016/11/15,12:10,0.94,0.11,8.9
2016/11/15,12:20,0.94,0.11,12
2016/11/15,12:30,0.92,0.12,16
2016/11/15,12:40,0.92,0.12,17
2016/11/15,12:50,0.92,0.12,13
2016/11/15,13:00,0.91,0.12,12
2016/11/15,13:10,0.90,0.13,10
2016/11/15,13:20,0.89,0.13,ND
2016/11/15,13:30,0.89,0.13,ND
2016/11/15,13:40,0.91,0.11,ND
2016/11/15,13:50,0.88,0.12,ND
2016/11/15,14:00,0.89,0.12,ND
2016/11/15,14:10,0.92,0.11,ND
2016/11/15,14:20,0.91,0.11,ND
2016/11/15,14:30,0.91,0.11,ND
2016/11/15,14:40,0.90,0.12,ND
2016/11/15,14:50,0.93,0.12,ND
2016/11/15,15:00,0.94,0.13,ND
2016/11/15,15:10,0.94,0.13,ND
2016/11/15,15:20,0.97,0.12,9.5
2016/11/15,15:30,1.0,0.13,11
2016/11/15,15:40,1.0,0.13,9.3
2016/11/15,15:50,1.1,0.13,12
2016/11/15,16:00,1.1,0.14,14
2016/11/15,16:10,1.2,0.14,9.5
2016/11/15,16:20,1.2,0.14,ND
2016/11/15,16:30,1.2,0.14,ND
2016/11/15,16:40,1.2,0.15,ND
2016/11/15,16:50,1.2,0.14,ND
2016/11/15,17:00,1.2,0.14,ND
2016/11/15,17:10,1.2,0.15,ND
2016/11/15,17:20,1.2,0.15,ND
2016/11/15,17:30,1.2,0.14,ND
2016/11/15,17:40,1.1,0.13,ND
2016/11/15,17:50,1.1,0.14,ND
2016/11/15,18:00,1.1,0.14,ND
2016/11/15,18:10,1.1,0.11,ND
2016/11/15,18:20,1.0,0.13,ND
2016/11/15,18:30,1.0,0.14,ND
2016/11/15,18:40,1.0,0.14,ND
2016/11/15,18:50,0.93,0.15,ND
2016/11/15,19:00,0.94,0.15,9.7
2016/11/15,19:10,0.93,0.15,ND
2016/11/15,19:20,0.92,0.14,ND
2016/11/15,19:30,0.92,0.14,ND
2016/11/15,19:40,0.94,0.13,ND
2016/11/15,19:50,1.0,0.12,ND
2016/11/15,20:00,1.0,0.12,ND
2016/11/15,20:10,1.0,0.11,ND
2016/11/15,20:20,0.95,0.14,ND
2016/11/15,20:30,0.97,0.14,ND
2016/11/15,20:40,1.1,0.12,ND
2016/11/15,20:50,1.1,0.12,ND
2016/11/15,21:00,1.1,0.12,ND
2016/11/15,21:10,1.1,0.13,ND
2016/11/15,21:20,1.1,0.13,ND
2016/11/15,21:30,1.1,0.14,ND
2016/11/15,21:40,1.1,0.14,ND
2016/11/15,21:50,1.1,0.15,ND
2016/11/15,22:00,1.1,0.14,ND
2016/11/15,22:10,1.1,0.15,ND
2016/11/15,22:20,1.1,0.14,ND
2016/11/15,22:30,1.1,0.13,9.0
2016/11/15,22:40,1.1,0.13,10
2016/11/15,22:50,1.1,0.13,8.8
2016/11/15,23:00,1.1,0.13,ND
2016/11/15,23:10,1.1,0.13,9.0
2016/11/15,23:20,1.1,0.12,ND
2016/11/15,23:30,1.1,0.13,ND
2016/11/15,23:40,1.1,0.13,ND
2016/11/15,23:50,0.99,0.14,ND
